Location: Namasale
(1.5000°N, 32.6167°E)
Time: 19:20:34
(UTC+00:00)

Vanguard 1 Rocket - Pass Details

Date: 24 April 2021
Orbit: 652 x 4224 km, 34.3° (Epoch: 10 May)

Event Time Altitude Azimuth Distance (km) Brightness Sun altitude
Rises 20:06:43 0° 272° (W) 4,476 11.3 -61.0°
Reaches altitude 10° 20:09:38 10° 261° (W) 3,877 10.8 -61.6°
Enters shadow 20:09:46 10° 260° (W) 3,856 10.8 -61.7°
Maximum altitude 20:19:00 32° 202° (SSW) 3,571 - -63.6°
Drops below altitude 10° 20:35:02 10° 146° (SE) 6,590 - -66.8°
Sets 20:42:22 0° 137° (SE) 8,078 - -68.2°
